Regional Weather Roundup
Issued by NWS Lake Charles, LA

Home | Current Version | Previous Version | Text Only | Print | Product List | Glossary On
Versions: 1 2 3 4 5 6 7 8 9 10 11 12 13 14 15 16 17 18 19 20 21 22 23 24 25 26 27 28 29 30 31 32 33 34 35 36 37 38 39 40 41 42 43 44 45 46 47 48 49 50
000
ASUS44 KLCH 290610
RWRLCH
RWRLCH
REGIONAL WEATHER ROUNDUP
NATIONAL WEATHER SERVICE LAKE CHARLES LA
100 AM CDT SUN MAR 29 2015

Note: "fair" indicates few or no clouds below 12,000 feet with no
significant weather and/or obstructions to visibility.


ACROSS SOUTHEAST TEXAS

CITY           SKY/WX    TMP DP  RH WIND       PRES   REMARKS
BEAUMONT       CLEAR     60  59  96 E6        30.14S
BEAUMONT CITY    N/A     58  57  98 E5        30.15R
ORANGE         CLEAR     62  59  91 SE3       30.17S
JASPER         CLEAR     56  54  92 CALM      30.17S
$$

ACROSS CENTRAL LOUISIANA

CITY           SKY/WX    TMP DP  RH WIND       PRES   REMARKS
LEESVILLE      CLEAR     58  55  89 SE7       30.16R
FULLERTON        N/A     61  55  81 VRB3      30.14S
ALEXANDRIA INT CLEAR     56  55  97 SE7       30.15S
ESLER FIELD    CLEAR     55  53  93 NE3       30.18R
DERIDDER         N/A     57  55  94 CALM      30.18S
OAKDALE        MOCLDY    50  49  95 CALM      30.18S
OPELOUSAS        N/A     56  53  92 SE5       30.20R
$$

ACROSS SOUTHWEST AND SOUTH CENTRAL LOUISIANA

CITY           SKY/WX    TMP DP  RH WIND       PRES   REMARKS
SULPHUR        CLEAR     63  62  97 SE3       30.18R
LAKE CHARLES   CLEAR     58  57  97 SE3       30.17S
CHENNAULT INT  CLEAR     56  56  97 CALM      30.18S
CAMERON PHI    NOT AVBL
DEQUINCY         N/A     55  55 100 CALM      30.17S
JENNINGS         N/A     58  57  96 SE3       30.18S
LAFAYETTE      CLEAR     57  55  93 CALM      30.20R
NEW IBERIA     CLEAR     57  54  89 SE5       30.21R
ABBEVILLE        N/A     59  58  96 SE3       30.20R
PATTERSON      CLEAR     57  54  88 SE8       30.20F
SALT POINT       N/A     59  57  93 E3        30.20R
$$

SELECTED SITES ACROSS THE REGION

CITY           SKY/WX    TMP DP  RH WIND       PRES   REMARKS
HOUSTON BUSH   CLEAR     64  59  83 S8        30.11S
HOUSTON HOBBY  CLEAR     62  61  96 S8        30.11F
GALVESTON      CLEAR     65  64  97 S13       30.14S
COLLEGE STAT   CLEAR     60  45  57 S7        30.08S
CONROE         CLEAR     54  46  74 CALM      30.11S
HUNTSVILLE     CLEAR     63  50  62 S12       30.10R
LUFKIN         CLEAR     59  52  77 SE6       30.12R
SHREVEPORT     CLEAR     53  41  63 E10       30.14S
MONROE         CLEAR     48  37  65 E10       30.24S
NATCHEZ MS     MOCLDY    54  37  54 E12       30.23R
BATON ROUGE    CLEAR     53  49  86 E5        30.22R
N.O. INTL ARPT CLEAR     58  49  72 SE7       30.23S
SLIDELL        CLEAR     51  50  96 NE3       30.24S
$$

MARINE REPORTS

STATION/POSITION TIME  TEMP    WIND        PRES    VSBY  WAVE
                       AIR SEA DIR/SP/G                  HT/PER
                 (UTC) (F)     (DEG/KT/KT) (MB)    (MI)  (FT/S)
BUOY 30 S HIGH I 0550   66 65  180/  8/ 10 1020.1F         2/ 5
SEA RIM ST PARK  0500   65     190/  8/ 10 1021.2F
PORT ARTHUR      0506      67  180/  4/  7 1020.9F
SABINE PASS N    0500   65 67  190/  6/  9 1020.9F
TEXAS POINT      NOT AVBL
CALCASIEU PASS   0500   66 65  200/ 11/ 13   N/A
LK CHARLES BEACH 0500   61 67              1021.8R
MARSH ISLAND     NOT AVBL
FRESH WATER LOCK 0500   65 67  140/  6/  7 1021.9S
AMERADA PASS     0500   61 59  120/  3/  4 1022.6S
$$


USA.gov is the U.S. government's official web portal to all federal, state and local government web resources and services.